GS455 EDFH-EBAW

Flight info

Callsign GS455
Flight time 0h 44m
Altitude 22000
Route RUDOT2E RUDOT DCT TIPUT DCT LNO
Aircraft P180/L-SBDFGM3RWXY/LB1

Departure

Time 2026-04-27 08:59
Airport Frankfurt-Hahn Airport (EDFH)

Arrival

Time 2026-04-27 09:43
Airport Antwerp International Airport (Deurne) (EBAW)
Time Latitude Longitude Altitude Speed Heading
2026-04-27 08:38 49.94174 7.26304 1652 ft 0 kts 127°
2026-04-27 08:50 49.94182 7.26287 1652 ft 4 kts 88°
2026-04-27 08:50 49.94171 7.26265 1652 ft 3 kts 34°
2026-04-27 08:50 49.94164 7.26258 1652 ft 0 kts 34°
2026-04-27 08:55 49.94171 7.26265 1652 ft 4 kts 32°
2026-04-27 08:55 49.94211 7.26290 1651 ft 9 kts 18°
2026-04-27 08:55 49.94277 7.26347 1650 ft 12 kts 34°
2026-04-27 08:56 49.94362 7.26435 1649 ft 17 kts 34°
2026-04-27 08:56 49.94446 7.26442 1648 ft 14 kts 302°
2026-04-27 08:56 49.94502 7.26303 1648 ft 13 kts 303°
2026-04-27 08:56 49.94525 7.26247 1648 ft 0 kts 302°
2026-04-27 08:57 49.94541 7.26208 1649 ft 4 kts 301°
2026-04-27 08:57 49.94562 7.26158 1649 ft 7 kts 309°
2026-04-27 08:57 49.94606 7.26137 1648 ft 8 kts 31°
2026-04-27 08:58 49.94609 7.26139 1648 ft 0 kts 31°
2026-04-27 08:58 49.94611 7.26142 1648 ft 11 kts 31°
2026-04-27 08:58 49.95066 7.26593 1642 ft 132 kts 32°
2026-04-27 08:58 49.95970 7.27474 2161 ft 171 kts 34°
2026-04-27 08:59 49.97125 7.28511 3202 ft 205 kts 29°
2026-04-27 08:59 49.98417 7.29583 4333 ft 225 kts 31°
2026-04-27 08:59 49.99827 7.31088 4681 ft 262 kts 37°
2026-04-27 08:59 50.01345 7.32853 4976 ft 276 kts 34°
2026-04-27 09:00 50.03019 7.34004 5432 ft 258 kts
2026-04-27 09:00 50.04762 7.33798 5927 ft 247 kts 347°
2026-04-27 09:00 50.06265 7.32579 6417 ft 244 kts 320°
2026-04-27 09:00 50.07297 7.30539 6891 ft 241 kts 298°
2026-04-27 09:01 50.07693 7.28072 7369 ft 241 kts 274°
2026-04-27 09:01 50.07412 7.25517 7849 ft 242 kts 249°
2026-04-27 09:01 50.06482 7.23351 8343 ft 242 kts 225°
2026-04-27 09:01 50.05104 7.21834 8859 ft 242 kts 214°
2026-04-27 09:02 50.03697 7.20379 9363 ft 246 kts 216°
2026-04-27 09:02 50.02263 7.18883 9900 ft 249 kts 215°
2026-04-27 09:02 50.00805 7.17413 10401 ft 252 kts 215°
2026-04-27 09:02 49.99335 7.15918 10887 ft 253 kts 216°
2026-04-27 09:03 49.98150 7.13951 11361 ft 249 kts 247°
2026-04-27 09:03 49.98013 7.11337 11841 ft 247 kts 284°
2026-04-27 09:03 49.98580 7.08839 12353 ft 246 kts 290°
2026-04-27 09:03 49.99081 7.06300 12861 ft 246 kts 284°
2026-04-27 09:04 49.99311 7.03655 13388 ft 246 kts 273°
2026-04-27 09:04 49.99287 7.00994 13924 ft 246 kts 269°
2026-04-27 09:04 49.99256 6.98335 14389 ft 246 kts 271°
2026-04-27 09:04 49.99284 6.95712 14864 ft 245 kts 272°
2026-04-27 09:05 49.99311 6.93043 15352 ft 244 kts 272°
2026-04-27 09:05 49.99340 6.90442 15839 ft 243 kts 275°
2026-04-27 09:05 49.99651 6.87883 16338 ft 240 kts 283°
2026-04-27 09:05 50.00001 6.85344 16852 ft 238 kts 282°
2026-04-27 09:06 50.00313 6.82832 17369 ft 236 kts 282°
2026-04-27 09:06 50.00631 6.80350 17899 ft 233 kts 282°
2026-04-27 09:06 50.00891 6.77874 18422 ft 233 kts 264°
2026-04-27 09:06 50.00618 6.75626 19586 ft 194 kts 265°
2026-04-27 09:07 50.00436 6.73562 20400 ft 197 kts 268°
2026-04-27 09:07 50.00449 6.71501 21422 ft 189 kts 281°
2026-04-27 09:07 50.01113 6.69693 22306 ft 185 kts 304°
2026-04-27 09:07 50.01918 6.68051 22896 ft 210 kts 301°
2026-04-27 09:08 50.02624 6.65796 22786 ft 254 kts 288°
2026-04-27 09:08 50.02984 6.62950 22803 ft 288 kts 278°
2026-04-27 09:08 50.03240 6.59670 22608 ft 322 kts 277°
2026-04-27 09:08 50.03608 6.56185 22376 ft 324 kts 282°
2026-04-27 09:09 50.04136 6.52808 22227 ft 320 kts 284°
2026-04-27 09:09 50.04599 6.49456 22225 ft 313 kts 280°
2026-04-27 09:09 50.04941 6.46148 22225 ft 307 kts 279°
2026-04-27 09:09 50.05323 6.42966 22218 ft 302 kts 282°
2026-04-27 09:10 50.05767 6.39736 22221 ft 299 kts 282°
2026-04-27 09:10 50.06158 6.36585 22220 ft 295 kts 281°
2026-04-27 09:10 50.06530 6.33454 22221 ft 293 kts 281°
2026-04-27 09:10 50.06918 6.30347 22222 ft 291 kts 281°
2026-04-27 09:11 50.07302 6.27259 22220 ft 289 kts 281°
2026-04-27 09:11 50.07693 6.24228 22217 ft 288 kts 284°
2026-04-27 09:11 50.08581 6.21418 22225 ft 288 kts 304°
2026-04-27 09:11 50.10001 6.19208 22228 ft 292 kts 321°
2026-04-27 09:12 50.11731 6.17540 22227 ft 292 kts 325°
2026-04-27 09:12 50.13445 6.15851 22228 ft 291 kts 324°
2026-04-27 09:12 50.14572 6.14718 22229 ft 291 kts 324°
2026-04-27 09:12 50.16275 6.13046 22228 ft 280 kts 324°
2026-04-27 09:13 50.17879 6.11490 22193 ft 257 kts 324°
2026-04-27 09:13 50.19396 6.09988 21534 ft 260 kts 324°
2026-04-27 09:13 50.20899 6.08503 20988 ft 258 kts 324°
2026-04-27 09:13 50.22407 6.07014 20429 ft 256 kts 324°
2026-04-27 09:14 50.23907 6.05541 19886 ft 253 kts 324°
2026-04-27 09:14 50.25385 6.04081 19359 ft 251 kts 324°
2026-04-27 09:14 50.26859 6.02627 18844 ft 249 kts 324°
2026-04-27 09:14 50.28319 6.01182 18312 ft 246 kts 324°
2026-04-27 09:15 50.29765 5.99750 17728 ft 244 kts 324°
2026-04-27 09:15 50.31197 5.98337 17164 ft 242 kts 324°
2026-04-27 09:15 50.32615 5.96929 16596 ft 240 kts 324°
2026-04-27 09:15 50.34027 5.95530 16038 ft 239 kts 325°
2026-04-27 09:16 50.35428 5.94144 15504 ft 238 kts 325°
2026-04-27 09:16 50.36805 5.92771 14994 ft 237 kts 325°
2026-04-27 09:16 50.38212 5.91374 14474 ft 235 kts 325°
2026-04-27 09:16 50.39580 5.90019 13950 ft 234 kts 325°
2026-04-27 09:17 50.40954 5.88649 13378 ft 233 kts 325°
2026-04-27 09:17 50.42317 5.87292 12820 ft 232 kts 325°
2026-04-27 09:17 50.43680 5.85935 12253 ft 231 kts 326°
2026-04-27 09:17 50.45036 5.84583 11706 ft 230 kts 326°
2026-04-27 09:18 50.46387 5.83240 11177 ft 229 kts 326°
2026-04-27 09:18 50.47725 5.81899 10654 ft 228 kts 326°
2026-04-27 09:18 50.49067 5.80563 10144 ft 228 kts 326°
2026-04-27 09:18 50.50402 5.79227 9598 ft 226 kts 326°
2026-04-27 09:19 50.51722 5.77900 9075 ft 224 kts 326°
2026-04-27 09:19 50.53022 5.76613 8527 ft 222 kts 326°
2026-04-27 09:19 50.54322 5.75305 7979 ft 222 kts 326°
2026-04-27 09:19 50.55628 5.73992 7414 ft 222 kts 327°
2026-04-27 09:20 50.56916 5.72702 7270 ft 220 kts 327°
2026-04-27 09:20 50.58225 5.71379 7273 ft 227 kts 326°
2026-04-27 09:20 50.59371 5.69642 7266 ft 232 kts 307°
2026-04-27 09:20 50.60335 5.67575 7272 ft 235 kts 306°
2026-04-27 09:21 50.61347 5.65544 7270 ft 238 kts 309°
2026-04-27 09:21 50.62415 5.63530 7273 ft 238 kts 309°
2026-04-27 09:21 50.63444 5.61513 7273 ft 239 kts 308°
2026-04-27 09:21 50.64476 5.59466 7274 ft 240 kts 308°
2026-04-27 09:22 50.65534 5.57390 7274 ft 241 kts 308°
2026-04-27 09:22 50.66582 5.55321 7275 ft 241 kts 308°
2026-04-27 09:22 50.67631 5.53253 7274 ft 242 kts 308°
2026-04-27 09:22 50.68686 5.51184 7273 ft 242 kts 308°
2026-04-27 09:23 50.69718 5.49135 7275 ft 241 kts 308°
2026-04-27 09:23 50.70774 5.47056 7273 ft 242 kts 308°
2026-04-27 09:23 50.71825 5.44979 7272 ft 242 kts 308°
2026-04-27 09:23 50.72877 5.42887 7271 ft 242 kts 308°
2026-04-27 09:24 50.73917 5.40832 7273 ft 242 kts 308°
2026-04-27 09:24 50.74969 5.38756 7274 ft 242 kts 308°
2026-04-27 09:24 50.76015 5.36671 7275 ft 242 kts 308°
2026-04-27 09:24 50.77066 5.34592 7275 ft 242 kts 309°
2026-04-27 09:25 50.78115 5.32514 7276 ft 241 kts 308°
2026-04-27 09:25 50.79144 5.30448 7277 ft 241 kts 308°
2026-04-27 09:25 50.80195 5.28374 7278 ft 242 kts 308°
2026-04-27 09:25 50.81244 5.26288 7277 ft 242 kts 308°
2026-04-27 09:26 50.82289 5.24188 7280 ft 242 kts 308°
2026-04-27 09:26 50.83345 5.22100 7279 ft 242 kts 308°
2026-04-27 09:26 50.84389 5.20012 7280 ft 241 kts 308°
2026-04-27 09:26 50.85432 5.17926 7282 ft 242 kts 308°
2026-04-27 09:27 50.86461 5.15870 7274 ft 242 kts 308°
2026-04-27 09:27 50.87542 5.13713 7277 ft 249 kts 310°
2026-04-27 09:27 50.88835 5.11951 7272 ft 251 kts 325°
2026-04-27 09:27 50.90284 5.10395 7276 ft 252 kts 324°
2026-04-27 09:28 50.91672 5.08698 7279 ft 252 kts 321°
2026-04-27 09:28 50.93042 5.06943 7279 ft 253 kts 322°
2026-04-27 09:28 50.94456 5.05275 7280 ft 252 kts 324°
2026-04-27 09:28 50.95865 5.03617 7282 ft 252 kts 322°
2026-04-27 09:29 50.97256 5.01916 7284 ft 253 kts 322°
2026-04-27 09:29 50.98644 5.00234 7283 ft 253 kts 323°
2026-04-27 09:29 51.00055 4.98545 7283 ft 253 kts 322°
2026-04-27 09:29 51.01460 4.96842 7281 ft 253 kts 322°
2026-04-27 09:30 51.02862 4.95137 7282 ft 253 kts 322°
2026-04-27 09:30 51.04259 4.93455 7281 ft 253 kts 323°
2026-04-27 09:30 51.05665 4.91754 7284 ft 253 kts 322°
2026-04-27 09:30 51.07059 4.90042 7284 ft 253 kts 322°
2026-04-27 09:31 51.08465 4.88349 7282 ft 253 kts 323°
2026-04-27 09:31 51.09853 4.86683 7282 ft 253 kts 322°
2026-04-27 09:31 51.11249 4.84926 7281 ft 252 kts 318°
2026-04-27 09:31 51.12191 4.82653 7274 ft 253 kts 289°
2026-04-27 09:32 51.12648 4.79952 7280 ft 252 kts 285°
2026-04-27 09:32 51.13193 4.77295 7276 ft 252 kts 290°
2026-04-27 09:32 51.13760 4.74657 7282 ft 252 kts 288°
2026-04-27 09:32 51.14258 4.71992 7277 ft 252 kts 287°
2026-04-27 09:33 51.14776 4.69282 7068 ft 259 kts 287°
2026-04-27 09:33 51.15326 4.66487 6738 ft 268 kts 287°
2026-04-27 09:33 51.15888 4.63609 6328 ft 275 kts 287°
2026-04-27 09:33 51.16463 4.60652 5827 ft 281 kts 288°
2026-04-27 09:34 51.17037 4.57665 5401 ft 282 kts 288°
2026-04-27 09:34 51.17604 4.54761 5000 ft 267 kts 289°
2026-04-27 09:34 51.18133 4.52032 4650 ft 255 kts 287°
2026-04-27 09:34 51.18624 4.49394 4316 ft 239 kts 288°
2026-04-27 09:35 51.19021 4.46920 4001 ft 224 kts 276°
2026-04-27 09:35 51.18870 4.44526 3722 ft 213 kts 260°
2026-04-27 09:35 51.18634 4.42234 3449 ft 205 kts 263°
2026-04-27 09:35 51.18480 4.40003 3178 ft 196 kts 264°
2026-04-27 09:36 51.18319 4.37876 2930 ft 190 kts 263°
2026-04-27 09:36 51.18165 4.35832 2683 ft 187 kts 264°
2026-04-27 09:36 51.18010 4.33852 2446 ft 167 kts 264°
2026-04-27 09:36 51.17852 4.31902 2212 ft 182 kts 263°
2026-04-27 09:37 51.17696 4.29926 2021 ft 180 kts 264°
2026-04-27 09:37 51.17548 4.27917 2022 ft 188 kts 264°
2026-04-27 09:37 51.17373 4.25845 2023 ft 190 kts 263°
2026-04-27 09:37 51.17488 4.23793 2001 ft 185 kts 295°
2026-04-27 09:38 51.18219 4.22173 2004 ft 178 kts 322°
2026-04-27 09:38 51.19295 4.21314 2001 ft 170 kts 350°
2026-04-27 09:38 51.20449 4.21309 2006 ft 165 kts 16°
2026-04-27 09:38 51.21459 4.22099 1999 ft 161 kts 40°
2026-04-27 09:39 51.22140 4.23467 2008 ft 158 kts 64°
2026-04-27 09:39 51.22401 4.25114 2003 ft 146 kts 87°
2026-04-27 09:39 51.22250 4.26672 2002 ft 138 kts 103°
2026-04-27 09:39 51.22018 4.28104 2003 ft 132 kts 101°
2026-04-27 09:40 51.21804 4.29528 1999 ft 131 kts 102°
2026-04-27 09:40 51.21595 4.30937 2007 ft 131 kts 99°
2026-04-27 09:40 51.21375 4.32347 2009 ft 129 kts 101°
2026-04-27 09:40 51.21161 4.33744 2021 ft 132 kts 102°
2026-04-27 09:41 51.20924 4.35170 2019 ft 133 kts 102°
2026-04-27 09:41 51.20697 4.36579 2007 ft 131 kts 102°
2026-04-27 09:41 51.20471 4.38008 2004 ft 130 kts 101°
2026-04-27 09:41 51.20311 4.39350 1603 ft 125 kts 96°
2026-04-27 09:42 51.20160 4.40712 1070 ft 117 kts 99°
2026-04-27 09:42 51.19949 4.41976 727 ft 116 kts 105°
2026-04-27 09:42 51.19715 4.43170 512 ft 111 kts 108°
2026-04-27 09:42 51.19448 4.44324 317 ft 108 kts 108°
2026-04-27 09:43 51.19206 4.45419 82 ft 97 kts 109°
2026-04-27 09:43 51.19006 4.46305 39 ft 73 kts 111°
2026-04-27 09:43 51.18864 4.46912 36 ft 38 kts 109°
2026-04-27 09:43 51.18790 4.47117 36 ft 14 kts 192°
2026-04-27 09:44 51.18739 4.47108 33 ft 2 kts 168°
2026-04-27 09:44 51.18714 4.47120 33 ft 0 kts 160°